TGL17MP LFLL-LFMT

Flight info

Callsign TGL17MP
Flight time 0h 34m
Altitude 25000
Route ROMAM A6 MTL DCT MOLEN DCT NG
Aircraft A320/M-SDE3FGHIRWY/LB1

Departure

Time 2026-04-28 16:55
Airport Lyon Saint-Exupéry Airport (LFLL)

Arrival

Time 2026-04-28 17:29
Airport Montpellier-Méditerranée Airport (LFMT)
Time Latitude Longitude Altitude Speed Heading
2026-04-28 16:34 45.72144 5.08175 797 ft 0 kts 269°
2026-04-28 16:43 45.72144 5.08186 797 ft 4 kts 268°
2026-04-28 16:43 45.72145 5.08225 797 ft 4 kts 274°
2026-04-28 16:44 45.72144 5.08263 797 ft 4 kts 266°
2026-04-28 16:44 45.72149 5.08299 798 ft 4 kts 235°
2026-04-28 16:44 45.72163 5.08316 798 ft 1 kts 198°
2026-04-28 16:44 45.72166 5.08318 798 ft 0 kts 198°
2026-04-28 16:50 45.72158 5.08314 798 ft 5 kts 198°
2026-04-28 16:50 45.72090 5.08283 797 ft 15 kts 199°
2026-04-28 16:50 45.71980 5.08254 798 ft 12 kts 171°
2026-04-28 16:50 45.71952 5.08321 799 ft 10 kts 96°
2026-04-28 16:51 45.71946 5.08401 800 ft 5 kts 96°
2026-04-28 16:51 45.71930 5.08454 802 ft 8 kts 130°
2026-04-28 16:51 45.71867 5.08473 802 ft 11 kts 172°
2026-04-28 16:51 45.71778 5.08483 802 ft 15 kts 175°
2026-04-28 16:52 45.71656 5.08498 802 ft 20 kts 175°
2026-04-28 16:52 45.71521 5.08515 803 ft 19 kts 175°
2026-04-28 16:52 45.71399 5.08529 810 ft 15 kts 175°
2026-04-28 16:52 45.71316 5.08539 813 ft 11 kts 175°
2026-04-28 16:53 45.71230 5.08549 814 ft 14 kts 174°
2026-04-28 16:53 45.71133 5.08603 817 ft 16 kts 133°
2026-04-28 16:53 45.71097 5.08761 819 ft 18 kts 99°
2026-04-28 16:53 45.71074 5.08956 822 ft 21 kts 88°
2026-04-28 16:54 45.71123 5.09029 820 ft 0 kts 354°
2026-04-28 16:54 45.71148 5.09025 814 ft 22 kts 354°
2026-04-28 16:54 45.71579 5.08971 814 ft 97 kts 355°
2026-04-28 16:54 45.72116 5.08905 808 ft 135 kts 355°
2026-04-28 16:55 45.73606 5.08709 1143 ft 170 kts 353°
2026-04-28 16:55 45.74792 5.08578 1914 ft 171 kts 357°
2026-04-28 16:55 45.75983 5.08442 2684 ft 177 kts 355°
2026-04-28 16:55 45.77280 5.08270 3035 ft 197 kts 355°
2026-04-28 16:56 45.78744 5.08104 3304 ft 225 kts 355°
2026-04-28 16:56 45.80363 5.07910 3921 ft 239 kts 355°
2026-04-28 16:56 45.82053 5.07783 4696 ft 248 kts
2026-04-28 16:56 45.83629 5.08739 5499 ft 253 kts 44°
2026-04-28 16:57 45.84508 5.10895 6289 ft 256 kts 81°
2026-04-28 16:57 45.84327 5.13388 7047 ft 256 kts 117°
2026-04-28 16:57 45.83156 5.15243 7791 ft 254 kts 154°
2026-04-28 16:57 45.81503 5.16049 8742 ft 251 kts 167°
2026-04-28 16:58 45.79813 5.16700 9685 ft 251 kts 168°
2026-04-28 16:58 45.78122 5.17344 10557 ft 252 kts 168°
2026-04-28 16:58 45.76427 5.18018 11340 ft 255 kts 167°
2026-04-28 16:58 45.74714 5.18763 12090 ft 260 kts 166°
2026-04-28 16:59 45.72973 5.19577 12782 ft 266 kts 166°
2026-04-28 16:59 45.71163 5.20133 13495 ft 269 kts 178°
2026-04-28 16:59 45.69225 5.20131 13749 ft 289 kts 185°
2026-04-28 16:59 45.67135 5.19997 13920 ft 313 kts 185°
2026-04-28 17:00 45.64880 5.19842 14049 ft 336 kts 186°
2026-04-28 17:00 45.62495 5.19674 14397 ft 349 kts 186°
2026-04-28 17:00 45.60051 5.19508 15000 ft 354 kts 185°
2026-04-28 17:00 45.57580 5.19350 15649 ft 357 kts 185°
2026-04-28 17:01 45.55084 5.19198 16295 ft 361 kts 185°
2026-04-28 17:01 45.52559 5.19044 16943 ft 365 kts 185°
2026-04-28 17:01 45.50014 5.18884 17574 ft 368 kts 186°
2026-04-28 17:01 45.47442 5.18715 18201 ft 372 kts 186°
2026-04-28 17:02 45.44847 5.18542 18739 ft 375 kts 185°
2026-04-28 17:02 45.43116 5.18429 19079 ft 378 kts 185°
2026-04-28 17:02 45.39581 5.18199 19772 ft 382 kts 185°
2026-04-28 17:02 45.36916 5.18029 20295 ft 385 kts 185°
2026-04-28 17:03 45.31517 5.17685 21333 ft 391 kts 185°
2026-04-28 17:03 45.28784 5.17510 21831 ft 394 kts 185°
2026-04-28 17:03 45.26032 5.17340 22330 ft 398 kts 185°
2026-04-28 17:04 45.20445 5.16992 23261 ft 406 kts 185°
2026-04-28 17:04 45.17612 5.16809 23701 ft 409 kts 185°
2026-04-28 17:05 45.12863 5.16464 24362 ft 412 kts 189°
2026-04-28 17:05 45.10053 5.15722 24752 ft 411 kts 198°
2026-04-28 17:05 45.07373 5.14336 24962 ft 409 kts 207°
2026-04-28 17:06 45.02277 5.10764 25017 ft 409 kts 208°
2026-04-28 17:06 44.99733 5.08974 25028 ft 409 kts 208°
2026-04-28 17:06 44.94643 5.05398 25029 ft 409 kts 208°
2026-04-28 17:07 44.92097 5.03619 25031 ft 409 kts 208°
2026-04-28 17:07 44.89544 5.01844 25029 ft 409 kts 208°
2026-04-28 17:07 44.86995 5.00074 25025 ft 408 kts 208°
2026-04-28 17:07 44.84445 4.98302 25030 ft 408 kts 208°
2026-04-28 17:08 44.81896 4.96529 25028 ft 408 kts 208°
2026-04-28 17:08 44.79350 4.94756 25037 ft 408 kts 208°
2026-04-28 17:08 44.76808 4.92992 25035 ft 408 kts 208°
2026-04-28 17:08 44.74253 4.91223 25031 ft 408 kts 208°
2026-04-28 17:09 44.71711 4.89463 25029 ft 408 kts 208°
2026-04-28 17:09 44.69165 4.87680 25027 ft 408 kts 208°
2026-04-28 17:09 44.66629 4.85884 25025 ft 408 kts 208°
2026-04-28 17:09 44.64095 4.84082 25022 ft 408 kts 208°
2026-04-28 17:10 44.61560 4.82282 25020 ft 408 kts 208°
2026-04-28 17:10 44.59025 4.80484 25019 ft 408 kts 208°
2026-04-28 17:10 44.56487 4.78688 25017 ft 408 kts 208°
2026-04-28 17:10 44.53876 4.77111 25017 ft 409 kts 202°
2026-04-28 17:11 44.51211 4.75685 25005 ft 410 kts 203°
2026-04-28 17:11 44.48552 4.74257 25008 ft 410 kts 203°
2026-04-28 17:11 44.45890 4.72828 25009 ft 410 kts 203°
2026-04-28 17:11 44.43227 4.71399 25010 ft 410 kts 203°
2026-04-28 17:12 44.40587 4.69920 25010 ft 408 kts 207°
2026-04-28 17:12 44.38203 4.67793 24357 ft 408 kts 223°
2026-04-28 17:12 44.36252 4.64891 23417 ft 412 kts 229°
2026-04-28 17:12 44.34364 4.61881 22572 ft 412 kts 229°
2026-04-28 17:13 44.32497 4.58893 21722 ft 403 kts 229°
2026-04-28 17:13 44.30663 4.55982 20626 ft 395 kts 229°
2026-04-28 17:13 44.28850 4.53132 19510 ft 390 kts 229°
2026-04-28 17:13 44.27059 4.50335 18456 ft 384 kts 228°
2026-04-28 17:14 44.25286 4.47577 17600 ft 379 kts 228°
2026-04-28 17:14 44.23546 4.44872 17167 ft 372 kts 228°
2026-04-28 17:14 44.21831 4.42207 16669 ft 367 kts 229°
2026-04-28 17:14 44.20136 4.39571 16153 ft 363 kts 229°
2026-04-28 17:15 44.18460 4.36961 15674 ft 360 kts 229°
2026-04-28 17:15 44.16797 4.34377 15180 ft 357 kts 229°
2026-04-28 17:15 44.15149 4.31817 14691 ft 354 kts 229°
2026-04-28 17:15 44.13510 4.29273 14192 ft 352 kts 228°
2026-04-28 17:16 44.11882 4.26746 13691 ft 350 kts 229°
2026-04-28 17:16 44.10263 4.24234 13160 ft 347 kts 228°
2026-04-28 17:16 44.08658 4.21752 12660 ft 343 kts 228°
2026-04-28 17:16 44.07068 4.19298 12169 ft 340 kts 228°
2026-04-28 17:17 44.05492 4.16872 11671 ft 337 kts 228°
2026-04-28 17:17 44.03927 4.14461 11160 ft 335 kts 228°
2026-04-28 17:17 44.02374 4.12068 10665 ft 332 kts 227°
2026-04-28 17:17 44.00856 4.09728 10515 ft 319 kts 227°
2026-04-28 17:18 43.99399 4.07483 10393 ft 307 kts 227°
2026-04-28 17:18 43.97996 4.05326 10272 ft 295 kts 227°
2026-04-28 17:18 43.96646 4.03249 10129 ft 285 kts 227°
2026-04-28 17:18 43.95330 4.01228 9913 ft 279 kts 227°
2026-04-28 17:19 43.94028 3.99234 9735 ft 280 kts 227°
2026-04-28 17:19 43.92726 3.97237 9369 ft 278 kts 227°
2026-04-28 17:19 43.91438 3.95259 8999 ft 276 kts 227°
2026-04-28 17:19 43.90151 3.93287 8619 ft 275 kts 227°
2026-04-28 17:20 43.88870 3.91328 8227 ft 274 kts 226°
2026-04-28 17:20 43.88025 3.90036 7985 ft 273 kts 226°
2026-04-28 17:20 43.86321 3.87446 7468 ft 271 kts 226°
2026-04-28 17:20 43.85057 3.85521 7100 ft 269 kts 226°
2026-04-28 17:21 43.83800 3.83604 6733 ft 268 kts 226°
2026-04-28 17:21 43.82500 3.81822 6361 ft 256 kts 214°
2026-04-28 17:21 43.81056 3.80492 5994 ft 243 kts 212°
2026-04-28 17:22 43.78509 3.78060 5734 ft 208 kts 212°
2026-04-28 17:22 43.77374 3.76948 5619 ft 190 kts 211°
2026-04-28 17:22 43.76320 3.75910 5259 ft 185 kts 213°
2026-04-28 17:23 43.74046 3.74545 4417 ft 179 kts 174°
2026-04-28 17:23 43.72885 3.75118 3991 ft 179 kts 147°
2026-04-28 17:23 43.71868 3.76102 3550 ft 179 kts 145°
2026-04-28 17:23 43.70839 3.77088 3111 ft 181 kts 145°
2026-04-28 17:24 43.69798 3.78080 2732 ft 179 kts 145°
2026-04-28 17:24 43.68834 3.79000 2635 ft 156 kts 145°
2026-04-28 17:24 43.67996 3.79799 2465 ft 138 kts 145°
2026-04-28 17:24 43.67226 3.80534 2415 ft 135 kts 144°
2026-04-28 17:25 43.66448 3.81276 2414 ft 136 kts 144°
2026-04-28 17:25 43.64869 3.82787 2416 ft 140 kts 144°
2026-04-28 17:25 43.64137 3.83664 2417 ft 140 kts 130°
2026-04-28 17:26 43.63586 3.84765 2257 ft 139 kts 121°
2026-04-28 17:26 43.63173 3.85982 1988 ft 139 kts 116°
2026-04-28 17:26 43.62738 3.87160 1770 ft 138 kts 118°
2026-04-28 17:26 43.62240 3.88282 1512 ft 136 kts 123°
2026-04-28 17:27 43.61728 3.89383 1367 ft 136 kts 124°
2026-04-28 17:27 43.61190 3.90447 1173 ft 134 kts 126°
2026-04-28 17:27 43.60661 3.91503 972 ft 132 kts 127°
2026-04-28 17:27 43.60145 3.92557 779 ft 133 kts 127°
2026-04-28 17:28 43.59610 3.93616 505 ft 135 kts 127°
2026-04-28 17:28 43.58540 3.95726 36 ft 133 kts 128°
2026-04-28 17:28 43.58062 3.96651 18 ft 102 kts 124°
2026-04-28 17:29 43.57741 3.97287 17 ft 58 kts 124°
2026-04-28 17:29 43.57536 3.97703 18 ft 48 kts 126°
2026-04-28 17:29 43.57357 3.98055 15 ft 39 kts 123°
2026-04-28 17:30 43.57180 3.98067 14 ft 17 kts 260°
2026-04-28 17:30 43.57273 3.97824 14 ft 14 kts 304°
2026-04-28 17:30 43.57324 3.97725 15 ft 11 kts 306°
2026-04-28 17:31 43.57363 3.97649 16 ft 9 kts 304°
2026-04-28 17:31 43.57475 3.97427 18 ft 17 kts 305°
2026-04-28 17:32 43.57625 3.97129 16 ft 21 kts 305°
2026-04-28 17:32 43.57716 3.96948 13 ft 25 kts 306°
2026-04-28 17:32 43.57818 3.96747 13 ft 26 kts 304°
2026-04-28 17:32 43.57915 3.96554 13 ft 17 kts 306°
2026-04-28 17:33 43.57896 3.96468 14 ft 11 kts 189°
2026-04-28 17:33 43.57814 3.96453 15 ft 13 kts 188°
2026-04-28 17:33 43.57797 3.96365 16 ft 12 kts 302°
2026-04-28 17:33 43.57831 3.96298 16 ft 13 kts 305°
2026-04-28 17:34 43.57917 3.96171 15 ft 15 kts 341°
2026-04-28 17:34 43.57991 3.96090 15 ft 12 kts 306°
2026-04-28 17:34 43.57987 3.96021 16 ft 8 kts 214°
2026-04-28 17:34 43.57964 3.96001 15 ft 1 kts 213°
2026-04-28 17:35 43.57958 3.95995 15 ft 1 kts 213°
2026-04-28 17:35 43.57956 3.95994 15 ft 0 kts 213°